SWR49 KSFO-LSZH

Flight info

Callsign SWR49
Flight time N/A
Altitude 33000
Route SNTNA2 DEDHD DCT LKV DCT MLP J540 YQL Q896 BORIX DCT 55N103W/N0489F350 59N095W 62N085W 65N070W/M082F350 DCT EPMAN DCT 66N050W/M083F370 66N040W 65N030W 63N020W DCT ATSIX/N0476F370 DCT AKIVO DCT NEXUS DCT TOPPA DCT SUTAL DCT GTQ DCT BAMEV DCT BLM
Aircraft B77W/H-SDE1E2E3FGHIJ2J3J4J5M1RWXY/LB1D1

Departure

Time N/A
Airport San Francisco International Airport (KSFO)

Arrival

Time 2026-05-04 09:38
Airport Zürich Airport (LSZH)
Time Latitude Longitude Altitude Speed Heading
2026-05-04 09:25 47.53208 7.92827 13145 ft 363 kts 111°
2026-05-04 09:25 47.52390 7.96273 12726 ft 347 kts 111°
2026-05-04 09:26 47.51609 7.99561 12427 ft 329 kts 111°
2026-05-04 09:26 47.50874 8.02647 12208 ft 310 kts 111°
2026-05-04 09:26 47.50181 8.05555 12019 ft 293 kts 111°
2026-05-04 09:26 47.49510 8.08376 11741 ft 289 kts 111°
2026-05-04 09:27 47.48850 8.11148 11381 ft 288 kts 111°
2026-05-04 09:27 47.48193 8.13906 10964 ft 282 kts 111°
2026-05-04 09:27 47.47560 8.16599 10637 ft 273 kts 108°
2026-05-04 09:27 47.47366 8.19377 10253 ft 270 kts 85°
2026-05-04 09:28 47.47875 8.21990 9806 ft 269 kts 68°
2026-05-04 09:28 47.48810 8.24336 9703 ft 259 kts 50°
2026-05-04 09:28 47.50274 8.25912 9685 ft 264 kts 25°
2026-05-04 09:28 47.52093 8.26446 9469 ft 268 kts 359°
2026-05-04 09:29 47.53880 8.25771 9168 ft 269 kts 331°
2026-05-04 09:29 47.55333 8.24043 8856 ft 267 kts 313°
2026-05-04 09:29 47.56622 8.22061 8539 ft 267 kts 314°
2026-05-04 09:29 47.57952 8.20127 8222 ft 267 kts 316°
2026-05-04 09:30 47.59322 8.18265 7892 ft 267 kts 324°
2026-05-04 09:30 47.60984 8.17186 7534 ft 256 kts 354°
2026-05-04 09:30 47.62694 8.17327 7244 ft 244 kts 20°
2026-05-04 09:30 47.64139 8.18486 7023 ft 231 kts 40°
2026-05-04 09:31 47.65324 8.20054 6737 ft 231 kts 44°
2026-05-04 09:31 47.66452 8.21781 6416 ft 230 kts 54°
2026-05-04 09:31 47.67121 8.23901 6121 ft 228 kts 77°
2026-05-04 09:31 47.67171 8.26108 5972 ft 220 kts 97°
2026-05-04 09:32 47.66569 8.28179 5722 ft 217 kts 127°
2026-05-04 09:32 47.65550 8.29818 5515 ft 213 kts 133°
2026-05-04 09:34 47.58731 8.39250 4118 ft 193 kts 135°
2026-05-04 09:34 47.58177 8.40006 3980 ft 192 kts 135°
2026-05-04 09:34 47.57187 8.41360 3728 ft 192 kts 135°
2026-05-04 09:34 47.56200 8.42712 3480 ft 191 kts 135°
2026-05-04 09:35 47.55230 8.44038 3246 ft 182 kts 135°
2026-05-04 09:35 47.54326 8.45273 3027 ft 170 kts 135°
2026-05-04 09:35 47.53473 8.46440 2833 ft 162 kts 135°
2026-05-04 09:35 47.52654 8.47557 2623 ft 159 kts 135°
2026-05-04 09:37 47.47231 8.54945 1391 ft 105 kts 136°
2026-05-04 09:37 47.46797 8.55537 1393 ft 60 kts 137°
2026-05-04 09:38 47.46592 8.55814 1396 ft 30 kts 140°
2026-05-04 09:38 47.46415 8.55939 1399 ft 26 kts 164°
2026-05-04 09:38 47.46292 8.55980 1401 ft 10 kts 164°
2026-05-04 09:38 47.46236 8.55951 1402 ft 8 kts 239°
2026-05-04 09:39 47.46230 8.55855 1400 ft 10 kts 272°
2026-05-04 09:39 47.46237 8.55739 1397 ft 12 kts 277°
2026-05-04 09:39 47.46246 8.55621 1396 ft 7 kts 268°
2026-05-04 09:39 47.46221 8.55593 1396 ft 3 kts 183°
2026-05-04 09:40 47.46212 8.55592 1396 ft 3 kts 187°
2026-05-04 09:40 47.46196 8.55590 1396 ft 4 kts 183°
2026-05-04 09:40 47.46181 8.55588 1396 ft 0 kts 185°